Location: Leipzig
(51.3203°N, 12.3761°E)
Time: 21:59:52
(UTC+01:00)

ISS - Pass Details

Date: 02 December 2021
Orbit: 413 x 422 km, 51.6° (Epoch: 27 January)

Event Time Altitude Azimuth Distance (km) Brightness Sun altitude
Rises 17:44:12 0° 281° (W) 2,389 1.2 -14.7°
Reaches altitude 10° 17:46:19 10° 280° (W) 1,520 0.1 -15.0°
Maximum altitude 17:49:43 78° 194° (SSW) 439 -3.7 -15.5°
Enters shadow 17:51:15 30° 112° (ESE) 786 -2.8 -15.7°
